TimeEDT,TemperatureF,Dew PointF,Humidity,Sea Level PressureIn,VisibilityMPH,Wind Direction,Wind SpeedMPH,Gust SpeedMPH,PrecipitationIn,Events,Conditions,WindDirDegrees,DateUTC
12:52 AM,32.0,30.0,92,30.23,10.0,West,8.1,-,N/A,,Clear,270,2013-10-25 04:52:00
1:52 AM,32.0,30.0,92,30.24,10.0,West,9.2,-,N/A,,Clear,270,2013-10-25 05:52:00
2:52 AM,32.0,30.0,92,30.25,10.0,West,9.2,-,N/A,,Clear,270,2013-10-25 06:52:00
3:52 AM,30.9,28.9,92,30.26,10.0,West,6.9,-,N/A,,Clear,260,2013-10-25 07:52:00
4:52 AM,30.9,30.0,96,30.27,10.0,West,6.9,-,N/A,,Clear,280,2013-10-25 08:52:00
5:52 AM,30.0,28.9,96,30.29,10.0,WSW,5.8,-,N/A,,Partly Cloudy,250,2013-10-25 09:52:00
6:52 AM,28.9,28.0,96,30.31,10.0,WSW,4.6,-,N/A,,Clear,240,2013-10-25 10:52:00
7:52 AM,30.0,28.0,92,30.33,10.0,WSW,5.8,-,N/A,,Mostly Cloudy,250,2013-10-25 11:52:00
8:52 AM,32.0,30.9,96,30.35,9.0,WSW,8.1,-,N/A,,Overcast,240,2013-10-25 12:52:00
9:52 AM,35.1,33.1,92,30.37,10.0,WSW,9.2,-,N/A,,Overcast,240,2013-10-25 13:52:00
10:52 AM,39.0,34.0,82,30.37,10.0,West,9.2,-,N/A,,Mostly Cloudy,260,2013-10-25 14:52:00
11:52 AM,45.0,33.1,63,30.36,10.0,WSW,9.2,-,N/A,,Clear,250,2013-10-25 15:52:00
12:52 PM,46.0,28.0,50,30.35,10.0,West,11.5,-,N/A,,Mostly Cloudy,260,2013-10-25 16:52:00
1:52 PM,46.0,28.9,51,30.34,10.0,WSW,13.8,-,N/A,,Overcast,250,2013-10-25 17:52:00
2:52 PM,46.9,28.9,50,30.31,10.0,West,11.5,-,N/A,,Overcast,260,2013-10-25 18:52:00
3:52 PM,46.9,25.0,42,30.30,10.0,SW,13.8,-,N/A,,Overcast,230,2013-10-25 19:52:00
4:52 PM,46.0,24.1,42,30.29,10.0,SW,17.3,20.7,N/A,,Overcast,230,2013-10-25 20:52:00
5:52 PM,46.0,25.0,44,30.27,10.0,SW,10.4,-,N/A,,Overcast,230,2013-10-25 21:52:00
6:52 PM,41.0,26.1,55,30.27,10.0,SSW,5.8,-,N/A,,Clear,210,2013-10-25 22:52:00
7:52 PM,39.0,26.1,60,30.26,10.0,SSW,6.9,-,N/A,,Clear,210,2013-10-25 23:52:00
8:52 PM,37.9,25.0,60,30.24,10.0,SSW,8.1,-,N/A,,Clear,210,2013-10-26 00:52:00
9:52 PM,37.9,25.0,60,30.21,10.0,SSW,8.1,-,N/A,,Clear,210,2013-10-26 01:52:00
10:52 PM,39.0,25.0,57,30.20,10.0,SW,8.1,-,N/A,,Clear,220,2013-10-26 02:52:00
11:52 PM,37.9,26.1,62,30.17,10.0,SSW,10.4,-,N/A,,Clear,210,2013-10-26 03:52:00